Flag for Canada Weather past 2 weeks in Laval, Quebec, Canada

Now
52 °F

Fog.


Feels Like: 50 °F
Forecast: 50 / 63 °F
Wind: 6 mph from West

Location: Montreal / Mirabel

Current Time: Sep 16, 2014 at 8:29:28 AM

Latest Report: Sep 16, 2014 at 7:52 AM


Visibility: 4 mi

Pressure: 30.00 "Hg

Humidity: 94%

Dew point: 50 °F

Location of LavalLocation

Historic Weather in Laval — Graph

°F

Laval temperature yesterday

Maximum temperature yesterday: 63 °F (at 4:00 PM)
Minimum temperature yesterday: 39 °F (at 1:00 AM)
Average temperature yesterday: 51 °F

Past Weeks' High & Low Weather Summary

 TemperatureHumidityPressure
High84 °F (Sep 5, 3:00 PM)100% (Sep 1, 8:00 AM)30.37 "Hg (Sep 1, 8:00 AM)
Low39 °F (Sep 15, 1:00 AM)36% (Sep 9, 2:00 PM)29.51 "Hg (Sep 11, 12:00 PM)
Average61 °F80%30.04 "Hg
* Reported Sep 1 7:00 AM — Sep 16 7:00 AM, Laval, Weather by CustomWeather, © 2014

Note: Actual official high and low records may vary slightly from our data, if they occured in-between our weather recording intervals... More about our weather records

Advertising

Laval weather history for previous 24 hours

 ConditionsComfort  
Time TempWeatherWind HumidityBarometerVisibility
7:00 AM
Sep 16
50 °FFog.3 mph100%30.00 "Hg3 mi
6:00 AM52 °FFog.6 mph94%29.98 "Hg6 mi
5:00 AM52 °FFog.6 mph94%29.98 "Hg6 mi
4:00 AM52 °FFog.5 mph94%29.99 "Hg6 mi
3:00 AM52 °FLow clouds.3 mph94%29.98 "Hg10 mi
2:00 AM52 °FPassing clouds.5 mph94%29.99 "Hg10 mi
1:00 AM52 °FLight rain. Mostly cloudy.8 mph94%30.01 "Hg15 mi
12:00 AM52 °FMostly cloudy.6 mph94%30.01 "Hg25 mi
11:00 PM
Sep 15
54 °FLight rain. Overcast.3 mph88%30.03 "Hg25 mi
10:00 PM54 °FLight rain. Mostly cloudy.2 mph88%30.04 "Hg25 mi
9:00 PM55 °FLight rain. Overcast.8 mph82%30.05 "Hg25 mi
8:00 PM57 °FLight rain. Cloudy.7 mph72%30.05 "Hg15 mi
7:00 PM59 °FCloudy.6 mph63%30.06 "Hg25 mi
6:00 PM59 °FCloudy.5 mph63%30.06 "Hg45 mi
5:00 PM61 °FCloudy.7 mph55%30.07 "Hg45 mi
4:00 PM63 °FBroken clouds.9 mph52%30.08 "Hg45 mi
3:00 PM61 °FPartly sunny.5 mph59%30.10 "Hg45 mi
2:00 PM59 °FPartly sunny.9 mph63%30.13 "Hg45 mi
1:00 PM59 °FPartly sunny.7 mph63%30.15 "Hg45 mi
12:00 PM57 °FBroken clouds.7 mph67%30.17 "Hg45 mi
11:00 AM55 °FBroken clouds.7 mph72%30.19 "Hg45 mi
10:00 AM52 °FPartly sunny.6 mph82%30.20 "Hg45 mi
9:00 AM46 °FScattered clouds.6 mph93%30.22 "Hg25 mi
8:00 AM45 °FPartly sunny.No wind93%30.23 "Hg45 mi
Weather by CustomWeather, © 2014

See weather overviewHow to use our weather pages